Rbgn^[z[y[W
メイン
   新天体発見情報
     Comet P/2024 T1 (Rankin)
投稿するにはまず登録を

フラット表示 前のトピック | 次のトピック
投稿者 スレッド
佐藤裕久
投稿日時: 2024-10-24 20:59
モデレータ
登録日: 2005-6-12
居住地: 日本
投稿: 2669
オンライン
Comet P/2024 T1 (Rankin)

David Rankin (アリゾナ大学月惑星研究所, LPL)の通報によると、10月2.5日UT、MtLemmon サーへイの1.5-m
反射望遠鏡で得た4枚の30-秒CCD画像から、7"のコマとp.a. 280°に6"の尾のある彗星を発見した。
小惑星センターのPCCP webpageに公表後、R. Weryk (西オンタリオ大学,物理および天文学科)によると、9月
9.6日UT、HaleakalaのPan-STARRS2 1.8-m Ritchey-Chretien 反射望遠鏡で得た4枚の45-秒wバンドサーベイ
画像(MPCの "isolated tracklet file"にある)では、1".2-1".3のシーイングで、1".7(半値全幅:FWHM)の集光
したコマが見え、p.a. 280°にまっすぐな5"の尾がある。この彗星活動は9月9日にMPCに提出された時には、
気づかれなかった。佐藤英貴氏(東京都文京区, 10月3.45-3.46日、60-秒CCD露出16枚のスタック, 0.43-m 
f/6.8 アストログラフ, Utah Desert Remote 天文台, Beryl Junction 近郊, ユタ州, 米国, 遠隔操作:強く
集光した8"のコマが見えるが尾はない。5".7の円形範囲で測定した光度は19.1等であった)らCCD観測者によって
彗星状と観測された。

彗星機能の報告は次のとおり、

OC   Date        Reporter           Coma    Tail    PA          Exposures
F52  2024-09-09  R. Weryk           0".5      5"    280            4x45s
I52  2024-10-03  J. B. Fazekas     10"       10"    270-310
U94  2024-10-03  H. Sato            8"                            16x60s
094  2024-10-05  A. Novichonok      6"       12"    231-290
W62  2024-10-06  J. Maikner         3"        6"    300           60x60s

発見位置は次のとおり、

     2024 UT             R.A. (2000) Decl.       Mag.   Observer
     Oct.  2.49354    7 35 32.92   +26 01 00.5   19.8   Rankin
           2.49824    7 35 33.39   +26 00 57.6   19.7     "
           2.50290    7 35 33.87   +26 00 55.2   19.7     "
           2.50757    7 35 34.28   +26 00 53.1   19.5     "

MPCの楕円軌道要素、位置推算表は次のとおり、

Orbital elements:
    P/2024 T1 (Rankin)                                                          
Epoch 2024 Oct. 17.0 TT = JDT 2460600.5                                         
T 2024 Sept. 30.51039 TT                                Rudenko                 
q   2.2895106            (2000.0)            P               Q                  
n   0.05650144     Peri.  164.89583     +0.08136840     -0.95102517             
a   6.7260956      Node   279.74455     +0.88021173     +0.20892710             
e   0.6596078      Incl.   17.61247     +0.46755374     -0.22781700             
P  17.4                                                                         
From 37 observations 2024 Sept. 9-Oct. 7, mean residual 0".4.                   
                                                                                
Ephemeris:
Date    TT    R. A. (2000) Decl.     Delta      r    Elong.  Phase   m1
2024 09 07    06 47 40.1 +29 18 14   2.5507  2.2998    64.3    23.2  20.2
...
2024 09 22    07 16 59.7 +27 30 38   2.3899  2.2909    72.1    24.6  20.0
...
2024 09 30    07 31 18.2 +26 23 16   2.3035  2.2895    76.6    25.2  19.9
...
2024 10 06    07 41 19.4 +25 28 50   2.2387  2.2901    80.1    25.5  19.8
2024 10 07    07 42 55.8 +25 19 29   2.2279  2.2903    80.7    25.5  19.8
2024 10 08    07 44 31.1 +25 10 02   2.2171  2.2906    81.3    25.5  19.8
...
2024 10 14    07 53 38.3 +24 11 48   2.1526  2.2929    85.0    25.7  19.8
...
2024 10 22    08 04 39.2 +22 50 30   2.0675  2.2981    90.2    25.7  19.7
...
2024 11 06    08 21 20.1 +20 10 03   1.9129  2.3141   100.8    24.9  19.6

(MPEC 2024-T181、CBET 5455)

フラット表示 前のトピック | 次のトピック

題名 投稿者 日時
 » Comet P/2024 T1 (Rankin) 佐藤裕久 2024-10-24 20:59

投稿するにはまず登録を
 
© 1999 Tsutomu Seki.